"read_dt","SO2 (ppb)","flags","PMT voltage (V)","lamp voltage (V)","lamp intensity (Hz)","internal temp (C)","react chamber temp (C)","sample flow (l/min)","pres (mmHg)","SO2 bkg (ppb)","SO2 coefficient"
2015-05-01 00:00:00,1759E-3,5C000000,-0724,0834,12117,027.3,045.4,0.477,738.4,01.18,0.508
2015-05-01 00:01:00,1772E-3,5C000000,-0724,0835,12079,027.2,045.4,0.477,738.4,01.18,0.508
2015-05-01 00:02:00,1705E-3,5C000000,-0724,0835,12174,027.2,045.4,0.477,738.4,01.18,0.508
2015-05-01 00:03:00,1720E-3,5C000000,-0724,0834,12074,027.2,045.4,0.477,738.4,01.18,0.508
2015-05-01 00:04:00,1832E-3,5C000000,-0724,0833,11973,027.3,045.4,0.477,738.5,01.18,0.508
2015-05-01 00:05:00,1838E-3,5C000000,-0724,0834,12162,027.2,045.4,0.477,738.5,01.18,0.508
2015-05-01 00:06:00,1691E-3,5C000000,-0724,0834,12036,027.2,045.4,0.477,738.5,01.18,0.508
2015-05-01 00:07:00,1738E-3,5C000000,-0724,0834,12127,027.2,045.4,0.477,738.5,01.18,0.508
2015-05-01 00:08:00,1803E-3,5C000000,-0724,0833,12067,027.2,045.4,0.477,738.5,01.18,0.508
2015-05-01 00:09:00,1855E-3,5C000000,-0724,0834,12202,027.3,045.4,0.477,738.5,01.18,0.508
2015-05-01 00:10:00,1759E-3,5C000000,-0724,0835,12270,027.3,045.4,0.477,738.5,01.18,0.508
2015-05-01 00:11:00,1891E-3,5C000000,-0724,0834,12133,027.3,045.4,0.477,738.5,01.18,0.508
2015-05-01 00:12:00,1779E-3,5C000000,-0724,0835,12156,027.2,045.4,0.477,738.6,01.18,0.508
2015-05-01 00:13:00,1832E-3,5C000000,-0724,0835,12193,027.2,045.4,0.477,738.6,01.18,0.508
2015-05-01 00:14:00,1797E-3,5C000000,-0724,0835,12139,027.2,045.4,0.478,738.6,01.18,0.508
2015-05-01 00:15:00,1686E-3,5C000000,-0724,0834,12043,027.2,045.4,0.477,738.6,01.18,0.508
2015-05-01 00:16:00,1804E-3,5C000000,-0724,0834,11995,027.2,045.4,0.477,738.6,01.18,0.508
2015-05-01 00:17:00,1842E-3,5C000000,-0724,0835,12142,027.2,045.4,0.478,738.6,01.18,0.508
2015-05-01 00:18:00,1769E-3,5C000000,-0724,0834,12253,027.2,045.4,0.478,738.6,01.18,0.508
2015-05-01 00:19:00,1760E-3,5C000000,-0724,0836,12120,027.2,045.4,0.478,738.6,01.18,0.508
2015-05-01 00:20:00,1697E-3,5C000000,-0724,0835,12073,027.2,045.4,0.478,738.6,01.18,0.508
2015-05-01 00:21:00,1841E-3,5C000000,-0724,0834,11975,027.2,045.4,0.478,738.6,01.18,0.508
2015-05-01 00:22:00,1796E-3,5C000000,-0724,0835,12325,027.2,045.4,0.478,738.6,01.18,0.508
2015-05-01 00:23:00,1831E-3,5C000000,-0724,0834,11986,027.2,045.4,0.477,738.6,01.18,0.508
2015-05-01 00:24:00,1683E-3,5C000000,-0724,0835,12314,027.2,045.4,0.477,738.6,01.18,0.508
2015-05-01 00:25:00,1872E-3,5C000000,-0724,0835,12263,027.2,045.4,0.477,738.6,01.18,0.508
2015-05-01 00:26:00,1877E-3,5C000000,-0724,0835,12135,027.2,045.4,0.477,738.6,01.18,0.508
2015-05-01 00:27:00,1823E-3,5C000000,-0724,0834,12132,027.2,045.4,0.477,738.7,01.18,0.508
2015-05-01 00:28:00,1886E-3,5C000000,-0724,0835,12148,027.1,045.4,0.477,738.6,01.18,0.508
2015-05-01 00:29:00,1793E-3,5C000000,-0724,0835,12235,027.2,045.4,0.477,738.6,01.18,0.508
2015-05-01 00:30:00,1666E-3,5C000000,-0724,0834,12017,027.2,045.4,0.477,738.6,01.18,0.508
2015-05-01 00:31:00,1832E-3,5C000000,-0724,0835,12330,027.2,045.4,0.477,738.6,01.18,0.508
2015-05-01 00:32:00,1655E-3,5C000000,-0724,0835,12226,027.2,045.4,0.477,738.7,01.18,0.508
2015-05-01 00:33:00,1781E-3,5C000000,-0724,0835,12101,027.2,045.4,0.477,738.7,01.18,0.508
2015-05-01 00:34:00,1758E-3,5C000000,-0724,0834,12174,027.2,045.4,0.477,738.7,01.18,0.508
2015-05-01 00:35:00,1754E-3,5C000000,-0724,0834,12181,027.2,045.4,0.477,738.5,01.18,0.508
2015-05-01 00:36:00,1702E-3,5C000000,-0724,0835,12097,027.2,045.4,0.477,738.6,01.18,0.508
2015-05-01 00:37:00,1659E-3,5C000000,-0724,0834,12195,027.2,045.4,0.477,738.7,01.18,0.508
2015-05-01 00:38:00,1893E-3,5C000000,-0724,0835,12196,027.2,045.4,0.477,738.6,01.18,0.508
2015-05-01 00:39:00,1785E-3,5C000000,-0724,0834,12228,027.2,045.4,0.477,738.7,01.18,0.508
2015-05-01 00:40:00,1696E-3,5C000000,-0724,0834,12297,027.2,045.4,0.477,738.7,01.18,0.508
2015-05-01 00:41:00,1811E-3,5C000000,-0724,0834,12210,027.2,045.4,0.477,738.7,01.18,0.508
2015-05-01 00:42:00,1689E-3,5C000000,-0724,0834,12114,027.1,045.4,0.477,738.7,01.18,0.508
2015-05-01 00:43:00,1731E-3,5C000000,-0724,0833,12127,027.1,045.4,0.477,738.7,01.18,0.508
2015-05-01 00:44:00,1851E-3,5C000000,-0724,0834,11945,027.1,045.4,0.477,738.6,01.18,0.508
2015-05-01 00:45:00,1782E-3,5C000000,-0724,0836,12080,027.1,045.4,0.477,738.6,01.18,0.508
2015-05-01 00:46:00,1735E-3,5C000000,-0724,0835,12172,027.1,045.4,0.477,738.6,01.18,0.508
2015-05-01 00:47:00,1684E-3,5C000000,-0724,0835,12322,027.2,045.4,0.477,738.6,01.18,0.508
2015-05-01 00:48:00,1791E-3,5C000000,-0724,0834,11951,027.2,045.4,0.477,738.7,01.18,0.508
2015-05-01 00:49:00,1958E-3,5C000000,-0724,0834,12134,027.2,045.4,0.477,738.7,01.18,0.508
2015-05-01 00:50:00,1778E-3,5C000000,-0724,0834,12098,027.2,045.4,0.477,738.7,01.18,0.508
2015-05-01 00:51:00,1662E-3,5C000000,-0724,0835,12343,027.2,045.4,0.477,738.8,01.18,0.508
2015-05-01 00:52:00,1807E-3,5C000000,-0724,0834,12164,027.2,045.4,0.477,738.8,01.18,0.508
2015-05-01 00:53:00,1584E-3,5C000000,-0724,0834,12162,027.2,045.4,0.477,738.8,01.18,0.508
2015-05-01 00:54:00,1682E-3,5C000000,-0724,0834,12120,027.2,045.4,0.477,738.8,01.18,0.508
2015-05-01 00:55:00,1764E-3,5C000000,-0724,0834,12086,027.1,045.4,0.477,738.8,01.18,0.508
2015-05-01 00:56:00,1716E-3,5C000000,-0724,0834,12188,027.1,045.4,0.477,738.7,01.18,0.508
2015-05-01 00:57:00,1800E-3,5C000000,-0724,0835,12167,027.1,045.4,0.477,738.8,01.18,0.508
2015-05-01 00:58:00,1619E-3,5C000000,-0724,0835,12028,027.1,045.4,0.477,738.8,01.18,0.508
2015-05-01 00:59:00,1779E-3,5C000000,-0724,0834,12290,027.1,045.4,0.477,738.8,01.18,0.508
2015-05-01 01:00:00,1738E-3,5C000000,-0724,0834,12174,027.1,045.4,0.477,738.8,01.18,0.508
2015-05-01 01:01:00,1672E-3,5C000000,-0724,0834,12200,027.1,045.4,0.477,738.8,01.18,0.508
2015-05-01 01:02:00,1786E-3,5C000000,-0724,0834,12309,027.2,045.4,0.477,738.8,01.18,0.508
2015-05-01 01:03:00,1748E-3,5C000000,-0724,0835,12160,027.2,045.4,0.477,738.8,01.18,0.508
2015-05-01 01:04:00,1896E-3,5C000000,-0724,0836,12234,027.2,045.4,0.477,738.8,01.18,0.508
2015-05-01 01:05:00,1612E-3,5C000000,-0724,0835,12320,027.2,045.4,0.477,738.8,01.18,0.508
2015-05-01 01:06:00,1766E-3,5C000000,-0724,0834,12031,027.2,045.4,0.477,738.8,01.18,0.508
2015-05-01 01:07:00,1740E-3,5C000000,-0724,0835,12178,027.2,045.4,0.477,738.8,01.18,0.508
2015-05-01 01:08:00,1919E-3,5C000000,-0724,0834,12166,027.2,045.4,0.477,738.9,01.18,0.508
2015-05-01 01:09:00,1723E-3,5C000000,-0724,0833,11886,027.2,045.4,0.477,738.9,01.18,0.508
2015-05-01 01:10:00,1734E-3,5C000000,-0724,0834,11978,027.2,045.4,0.477,738.9,01.18,0.508
2015-05-01 01:11:00,1807E-3,5C000000,-0724,0834,12045,027.2,045.4,0.477,738.9,01.18,0.508
2015-05-01 01:12:00,1909E-3,5C000000,-0724,0835,12085,027.2,045.4,0.477,738.9,01.18,0.508
2015-05-01 01:13:00,1725E-3,5C000000,-0724,0833,12254,027.1,045.4,0.477,738.9,01.18,0.508
2015-05-01 01:14:00,1689E-3,5C000000,-0724,0834,12222,027.1,045.4,0.477,738.9,01.18,0.508
2015-05-01 01:15:00,1646E-3,5C000000,-0724,0834,12034,027.1,045.4,0.477,738.9,01.18,0.508
2015-05-01 01:16:00,1798E-3,5C000000,-0724,0835,12194,027.1,045.4,0.477,738.9,01.18,0.508
2015-05-01 01:17:00,1778E-3,5C000000,-0724,0835,12145,027.1,045.4,0.477,738.9,01.18,0.508
2015-05-01 01:18:00,1816E-3,5C000000,-0724,0834,12042,027.2,045.4,0.477,738.9,01.18,0.508
2015-05-01 01:19:00,1737E-3,5C000000,-0724,0835,12146,027.1,045.4,0.477,738.9,01.18,0.508
2015-05-01 01:20:00,1666E-3,5C000000,-0724,0834,12164,027.1,045.4,0.477,738.9,01.18,0.508
2015-05-01 01:21:00,1866E-3,5C000000,-0724,0835,12150,027.1,045.5,0.477,738.9,01.18,0.508
2015-05-01 01:22:00,1756E-3,5C000000,-0724,0835,12255,027.2,045.4,0.477,739.0,01.18,0.508
2015-05-01 01:23:00,1795E-3,5C000000,-0724,0834,12243,027.2,045.4,0.478,739.0,01.18,0.508
2015-05-01 01:24:00,1679E-3,5C000000,-0724,0834,12210,027.1,045.4,0.478,738.9,01.18,0.508
2015-05-01 01:25:00,1693E-3,5C000000,-0724,0834,12070,027.1,045.4,0.478,738.9,01.18,0.508
2015-05-01 01:26:00,1698E-3,5C000000,-0724,0835,12167,027.1,045.4,0.478,738.9,01.18,0.508
2015-05-01 01:27:00,1689E-3,5C000000,-0724,0835,12133,027.0,045.4,0.478,738.9,01.18,0.508
2015-05-01 01:28:00,1844E-3,5C000000,-0724,0834,12081,027.0,045.4,0.478,738.9,01.18,0.508
2015-05-01 01:29:00,1789E-3,5C000000,-0724,0835,12052,026.9,045.4,0.478,738.9,01.18,0.508
2015-05-01 01:30:00,1754E-3,5C000000,-0724,0835,12129,026.7,045.4,0.478,739.0,01.18,0.508
2015-05-01 01:31:00,1746E-3,5C000000,-0724,0834,12060,026.6,045.4,0.478,739.0,01.18,0.508
2015-05-01 01:32:00,1668E-3,5C000000,-0724,0834,12209,026.5,045.4,0.478,739.0,01.18,0.508
2015-05-01 01:33:00,1798E-3,5C000000,-0724,0834,12160,026.4,045.4,0.478,739.0,01.18,0.508
2015-05-01 01:34:00,1763E-3,5C000000,-0724,0835,12198,026.3,045.4,0.478,739.0,01.18,0.508
2015-05-01 01:35:00,1770E-3,5C000000,-0724,0835,12112,026.3,045.4,0.479,739.0,01.18,0.508
2015-05-01 01:36:00,1839E-3,5C000000,-0724,0833,12184,026.2,045.4,0.479,739.0,01.18,0.508
2015-05-01 01:37:00,1775E-3,5C000000,-0724,0834,12055,026.1,045.4,0.479,739.0,01.18,0.508
2015-05-01 01:38:00,1756E-3,5C000000,-0724,0834,12242,026.1,045.4,0.479,739.0,01.18,0.508
2015-05-01 01:39:00,1643E-3,5C000000,-0724,0833,12242,026.0,045.4,0.479,739.0,01.18,0.508
2015-05-01 01:40:00,1674E-3,5C000000,-0724,0833,12128,026.0,045.4,0.479,739.0,01.18,0.508
2015-05-01 01:41:00,1918E-3,5C000000,-0724,0833,12165,025.9,045.4,0.479,739.0,01.18,0.508
2015-05-01 01:42:00,1814E-3,5C000000,-0724,0834,12239,025.9,045.4,0.479,739.1,01.18,0.508
2015-05-01 01:43:00,1810E-3,5C000000,-0724,0833,12133,025.8,045.4,0.479,739.1,01.18,0.508
2015-05-01 01:44:00,1678E-3,5C000000,-0724,0834,12186,025.8,045.4,0.480,739.0,01.18,0.508
2015-05-01 01:45:00,1872E-3,5C000000,-0724,0834,12117,025.8,045.4,0.480,739.0,01.18,0.508
2015-05-01 01:46:00,1785E-3,5C000000,-0724,0834,12095,025.9,045.4,0.480,739.0,01.18,0.508
2015-05-01 01:47:00,1711E-3,5C000000,-0724,0834,12171,026.1,045.4,0.479,739.0,01.18,0.508
2015-05-01 01:48:00,1704E-3,5C000000,-0724,0835,12211,026.2,045.4,0.479,739.0,01.18,0.508
2015-05-01 01:49:00,1706E-3,5C000000,-0724,0834,12210,026.4,045.4,0.479,739.0,01.18,0.508
2015-05-01 01:50:00,1664E-3,5C000000,-0724,0834,12165,026.5,045.4,0.479,738.9,01.18,0.508
2015-05-01 01:51:00,1817E-3,5C000000,-0724,0834,12176,026.6,045.4,0.479,738.9,01.18,0.508
2015-05-01 01:52:00,1765E-3,5C000000,-0724,0835,12274,026.7,045.4,0.479,739.0,01.18,0.508
2015-05-01 01:53:00,1885E-3,5C000000,-0724,0835,12206,026.7,045.4,0.479,739.0,01.18,0.508
2015-05-01 01:54:00,1691E-3,5C000000,-0724,0835,12167,026.8,045.4,0.479,739.0,01.18,0.508
2015-05-01 01:55:00,1778E-3,5C000000,-0724,0835,12046,026.8,045.4,0.478,739.0,01.18,0.508
2015-05-01 01:56:00,1715E-3,5C000000,-0724,0835,12132,026.9,045.4,0.478,739.0,01.18,0.508
2015-05-01 01:57:00,1720E-3,5C000000,-0724,0835,12074,026.9,045.4,0.478,739.0,01.18,0.508
2015-05-01 01:58:00,1708E-3,5C000000,-0724,0835,12056,026.9,045.4,0.478,738.9,01.18,0.508
2015-05-01 01:59:00,1775E-3,5C000000,-0724,0835,12151,026.9,045.4,0.478,739.0,01.18,0.508
2015-05-01 02:00:00,1797E-3,5C000000,-0724,0835,12275,026.9,045.4,0.478,739.0,01.18,0.508
2015-05-01 02:01:00,1836E-3,5C000000,-0724,0835,12128,026.9,045.4,0.478,739.0,01.18,0.508
2015-05-01 02:02:00,1742E-3,5C000000,-0724,0834,12076,026.9,045.4,0.478,739.0,01.18,0.508
2015-05-01 02:03:00,1644E-3,5C000000,-0724,0834,12107,027.0,045.4,0.478,739.0,01.18,0.508
2015-05-01 02:04:00,1762E-3,5C000000,-0724,0834,12220,027.0,045.4,0.478,739.0,01.18,0.508
2015-05-01 02:05:00,1836E-3,5C000000,-0724,0834,12265,027.0,045.4,0.478,739.0,01.18,0.508
2015-05-01 02:06:00,1709E-3,5C000000,-0724,0834,12117,027.0,045.4,0.478,739.0,01.18,0.508
2015-05-01 02:07:00,1734E-3,5C000000,-0724,0834,12242,027.1,045.4,0.478,739.0,01.18,0.508
2015-05-01 02:08:00,1695E-3,5C000000,-0724,0835,12106,027.1,045.4,0.478,739.1,01.18,0.508
2015-05-01 02:09:00,1671E-3,5C000000,-0724,0835,12144,027.1,045.4,0.478,739.1,01.18,0.508
2015-05-01 02:10:00,1745E-3,5C000000,-0724,0835,12177,027.1,045.4,0.478,739.1,01.18,0.508
2015-05-01 02:11:00,1746E-3,5C000000,-0724,0834,12065,027.1,045.4,0.478,739.1,01.18,0.508
2015-05-01 02:12:00,1715E-3,5C000000,-0724,0835,12217,027.1,045.4,0.478,739.1,01.18,0.508
2015-05-01 02:13:00,1754E-3,5C000000,-0724,0834,12000,027.1,045.4,0.478,739.1,01.18,0.508
2015-05-01 02:14:00,1640E-3,5C000000,-0724,0834,12090,027.1,045.5,0.478,739.1,01.18,0.508
2015-05-01 02:15:00,1828E-3,5C000000,-0724,0835,12215,027.1,045.4,0.478,739.1,01.18,0.508
2015-05-01 02:16:00,1859E-3,5C000000,-0724,0835,12231,027.1,045.4,0.478,739.1,01.18,0.508
2015-05-01 02:17:00,1800E-3,5C000000,-0724,0834,12168,027.1,045.4,0.478,739.1,01.18,0.508
2015-05-01 02:18:00,1621E-3,5C000000,-0724,0834,12071,027.1,045.4,0.478,739.0,01.18,0.508
2015-05-01 02:19:00,1762E-3,5C000000,-0724,0834,12061,027.2,045.4,0.478,739.1,01.18,0.508
2015-05-01 02:20:00,1908E-3,5C000000,-0724,0835,12198,027.2,045.4,0.478,739.1,01.18,0.508
2015-05-01 02:21:00,1682E-3,5C000000,-0724,0834,12194,027.2,045.4,0.478,739.1,01.18,0.508
2015-05-01 02:22:00,1722E-3,5C000000,-0724,0835,12018,027.2,045.4,0.478,739.1,01.18,0.508
2015-05-01 02:23:00,1638E-3,5C000000,-0724,0834,12188,027.2,045.4,0.478,739.1,01.18,0.508
2015-05-01 02:24:00,1793E-3,5C000000,-0724,0834,12137,027.2,045.4,0.478,739.1,01.18,0.508
2015-05-01 02:25:00,1701E-3,5C000000,-0724,0835,12214,027.2,045.4,0.478,739.1,01.18,0.508
2015-05-01 02:26:00,1868E-3,5C000000,-0724,0834,12146,027.2,045.4,0.478,739.1,01.18,0.508
2015-05-01 02:27:00,1739E-3,5C000000,-0724,0834,12106,027.2,045.4,0.478,739.1,01.18,0.508
2015-05-01 02:28:00,1835E-3,5C000000,-0724,0834,12173,027.2,045.4,0.478,739.1,01.18,0.508
2015-05-01 02:29:00,1822E-3,5C000000,-0724,0835,12095,027.2,045.4,0.478,739.1,01.18,0.508
2015-05-01 02:30:00,1769E-3,5C000000,-0724,0834,12155,027.2,045.4,0.478,739.1,01.18,0.508
2015-05-01 02:31:00,1533E-3,5C000000,-0724,0835,12195,027.2,045.4,0.478,739.1,01.18,0.508
2015-05-01 02:32:00,1825E-3,5C000000,-0724,0834,12160,027.1,045.4,0.477,739.1,01.18,0.508
2015-05-01 02:33:00,1954E-3,5C000000,-0724,0834,12152,027.0,045.4,0.477,739.2,01.18,0.508
2015-05-01 02:34:00,1802E-3,5C000000,-0724,0835,12041,027.0,045.4,0.477,739.2,01.18,0.508
2015-05-01 02:35:00,1811E-3,5C000000,-0724,0834,12321,026.8,045.4,0.478,739.2,01.18,0.508
2015-05-01 02:36:00,1808E-3,5C000000,-0724,0835,12247,026.7,045.4,0.478,739.2,01.18,0.508
2015-05-01 02:37:00,1753E-3,5C000000,-0724,0834,12039,026.6,045.4,0.478,739.2,01.18,0.508
2015-05-01 02:38:00,1771E-3,5C000000,-0724,0834,12258,026.5,045.4,0.479,739.2,01.18,0.508
2015-05-01 02:39:00,1733E-3,5C000000,-0724,0833,12240,026.5,045.4,0.478,739.2,01.18,0.508
2015-05-01 02:40:00,1815E-3,5C000000,-0724,0835,12028,026.4,045.4,0.478,739.2,01.18,0.508
2015-05-01 02:41:00,1863E-3,5C000000,-0724,0834,12145,026.3,045.4,0.479,739.2,01.18,0.508
2015-05-01 02:42:00,1725E-3,5C000000,-0724,0834,12129,026.2,045.4,0.479,739.2,01.18,0.508
2015-05-01 02:43:00,1626E-3,5C000000,-0724,0834,12190,026.1,045.4,0.479,739.2,01.18,0.508
2015-05-01 02:44:00,1843E-3,5C000000,-0724,0834,12249,026.1,045.4,0.479,739.2,01.18,0.508
2015-05-01 02:45:00,1797E-3,5C000000,-0724,0835,12220,026.0,045.4,0.479,739.2,01.18,0.508
2015-05-01 02:46:00,1819E-3,5C000000,-0724,0833,12126,026.0,045.4,0.479,739.2,01.18,0.508
2015-05-01 02:47:00,1812E-3,5C000000,-0724,0834,12207,025.9,045.4,0.479,739.2,01.18,0.508
2015-05-01 02:48:00,1909E-3,5C000000,-0724,0834,12197,025.9,045.4,0.479,739.2,01.18,0.508
2015-05-01 02:49:00,1686E-3,5C000000,-0724,0834,12134,025.9,045.4,0.479,739.2,01.18,0.508
2015-05-01 02:50:00,1910E-3,5C000000,-0724,0834,12147,025.8,045.4,0.479,739.2,01.18,0.508
2015-05-01 02:51:00,1719E-3,5C000000,-0724,0834,12182,025.8,045.4,0.479,739.2,01.18,0.508
2015-05-01 02:52:00,1746E-3,5C000000,-0724,0833,12179,025.8,045.4,0.479,739.2,01.18,0.508
2015-05-01 02:53:00,1822E-3,5C000000,-0724,0834,12127,025.9,045.4,0.479,739.2,01.18,0.508
2015-05-01 02:54:00,1690E-3,5C000000,-0724,0833,12262,026.0,045.4,0.479,739.2,01.18,0.508
2015-05-01 02:55:00,1810E-3,5C000000,-0724,0835,12216,026.1,045.4,0.479,739.2,01.18,0.508
2015-05-01 02:56:00,1836E-3,5C000000,-0724,0834,12141,026.3,045.4,0.479,739.2,01.18,0.508
2015-05-01 02:57:00,1694E-3,5C000000,-0724,0835,12119,026.4,045.4,0.479,739.1,01.18,0.508
2015-05-01 02:58:00,1770E-3,5C000000,-0724,0833,12114,026.5,045.4,0.479,739.2,01.18,0.508
2015-05-01 02:59:00,1823E-3,5C000000,-0724,0833,12172,026.6,045.4,0.479,739.2,01.18,0.508
2015-05-01 03:00:00,1677E-3,5C000000,-0724,0835,12139,026.6,045.4,0.479,739.2,01.18,0.508
2015-05-01 03:01:00,1789E-3,5C000000,-0724,0835,12131,026.7,045.4,0.479,739.2,01.18,0.508
2015-05-01 03:02:00,1810E-3,5C000000,-0724,0834,12123,026.8,045.4,0.478,739.2,01.18,0.508
2015-05-01 03:03:00,1814E-3,5C000000,-0724,0835,12256,026.8,045.4,0.478,739.2,01.18,0.508
2015-05-01 03:04:00,1876E-3,5C000000,-0724,0833,12202,026.8,045.4,0.478,739.2,01.18,0.508
2015-05-01 03:05:00,1699E-3,5C000000,-0724,0835,12021,026.9,045.4,0.478,739.2,01.18,0.508
2015-05-01 03:06:00,1826E-3,5C000000,-0724,0834,12235,026.9,045.4,0.479,739.2,01.18,0.508
2015-05-01 03:07:00,1689E-3,5C000000,-0724,0834,12289,026.9,045.4,0.478,739.3,01.18,0.508
2015-05-01 03:08:00,1789E-3,5C000000,-0724,0834,12144,026.9,045.4,0.478,739.3,01.18,0.508
2015-05-01 03:09:00,1653E-3,5C000000,-0724,0834,12186,026.9,045.4,0.478,739.3,01.18,0.508
2015-05-01 03:10:00,1737E-3,5C000000,-0724,0834,12016,027.0,045.4,0.478,739.3,01.18,0.508
2015-05-01 03:11:00,1810E-3,5C000000,-0724,0834,12352,027.0,045.4,0.478,739.3,01.18,0.508
2015-05-01 03:12:00,1760E-3,5C000000,-0724,0833,12171,027.1,045.4,0.478,739.3,01.18,0.508
2015-05-01 03:13:00,1909E-3,5C000000,-0724,0833,12197,027.1,045.4,0.478,739.3,01.18,0.508
2015-05-01 03:14:00,1630E-3,5C000000,-0724,0834,12139,027.1,045.4,0.478,739.3,01.18,0.508
2015-05-01 03:15:00,1776E-3,5C000000,-0724,0834,12097,027.1,045.4,0.478,739.3,01.18,0.508
2015-05-01 03:16:00,1668E-3,5C000000,-0724,0835,12206,027.1,045.4,0.478,739.3,01.18,0.508
2015-05-01 03:17:00,1656E-3,5C000000,-0724,0834,12210,027.1,045.4,0.478,739.3,01.18,0.508
2015-05-01 03:18:00,1873E-3,5C000000,-0724,0834,12154,027.1,045.4,0.478,739.3,01.18,0.508
2015-05-01 03:19:00,1672E-3,5C000000,-0724,0834,12135,027.1,045.4,0.478,739.3,01.18,0.508
2015-05-01 03:20:00,1749E-3,5C000000,-0724,0835,12292,027.1,045.4,0.478,739.3,01.18,0.508
2015-05-01 03:21:00,1768E-3,5C000000,-0724,0835,12313,027.2,045.4,0.478,739.3,01.18,0.508
2015-05-01 03:22:00,1754E-3,5C000000,-0724,0834,11955,027.1,045.4,0.478,739.3,01.18,0.508
2015-05-01 03:23:00,1626E-3,5C000000,-0724,0834,12185,027.1,045.4,0.478,739.3,01.18,0.508
2015-05-01 03:24:00,1746E-3,5C000000,-0724,0834,12195,027.1,045.4,0.478,739.4,01.18,0.508
2015-05-01 03:25:00,1797E-3,5C000000,-0724,0834,12063,027.0,045.4,0.478,739.4,01.18,0.508
2015-05-01 03:26:00,1728E-3,5C000000,-0724,0834,12174,027.0,045.4,0.478,739.4,01.18,0.508
2015-05-01 03:27:00,1841E-3,5C000000,-0724,0834,12173,026.9,045.4,0.478,739.4,01.18,0.508
2015-05-01 03:28:00,1739E-3,5C000000,-0724,0834,12293,026.7,045.4,0.478,739.4,01.18,0.508
2015-05-01 03:29:00,1909E-3,5C000000,-0724,0835,12336,026.6,045.4,0.478,739.4,01.18,0.508
2015-05-01 03:30:00,1712E-3,5C000000,-0724,0834,12127,026.5,045.4,0.478,739.4,01.18,0.508
2015-05-01 03:31:00,1746E-3,5C000000,-0724,0834,12216,026.5,045.4,0.478,739.4,01.18,0.508
2015-05-01 03:32:00,1834E-3,5C000000,-0724,0835,12139,026.4,045.4,0.478,739.4,01.18,0.508
2015-05-01 03:33:00,1776E-3,5C000000,-0724,0834,12152,026.3,045.4,0.479,739.4,01.18,0.508
2015-05-01 03:34:00,1865E-3,5C000000,-0724,0834,12166,026.2,045.4,0.479,739.5,01.18,0.508
2015-05-01 03:35:00,1662E-3,5C000000,-0724,0833,12026,026.2,045.4,0.479,739.5,01.18,0.508
2015-05-01 03:36:00,1933E-3,5C000000,-0724,0834,12340,026.1,045.4,0.479,739.5,01.18,0.508
2015-05-01 03:37:00,1830E-3,5C000000,-0724,0835,12162,026.1,045.4,0.479,739.5,01.18,0.508
2015-05-01 03:38:00,1879E-3,5C000000,-0724,0834,12187,026.0,045.4,0.479,739.5,01.18,0.508
2015-05-01 03:39:00,1839E-3,5C000000,-0724,0834,12249,026.0,045.4,0.479,739.5,01.18,0.508
2015-05-01 03:40:00,1776E-3,5C000000,-0724,0834,12181,025.9,045.4,0.480,739.5,01.18,0.508
2015-05-01 03:41:00,1659E-3,5C000000,-0724,0834,12207,025.9,045.4,0.480,739.5,01.18,0.508
2015-05-01 03:42:00,1807E-3,5C000000,-0724,0834,12108,025.8,045.4,0.480,739.5,01.18,0.508
2015-05-01 03:43:00,1747E-3,5C000000,-0724,0834,12170,025.8,045.4,0.480,739.5,01.18,0.508
2015-05-01 03:44:00,1959E-3,5C000000,-0724,0834,12095,025.8,045.4,0.480,739.5,01.18,0.508
2015-05-01 03:45:00,1817E-3,5C000000,-0724,0834,12192,025.8,045.4,0.480,739.5,01.18,0.508
2015-05-01 03:46:00,1703E-3,5C000000,-0724,0833,11922,025.8,045.4,0.480,739.6,01.18,0.508
2015-05-01 03:47:00,1665E-3,5C000000,-0724,0834,12181,025.7,045.4,0.480,739.6,01.18,0.508
2015-05-01 03:48:00,1862E-3,5C000000,-0724,0833,12100,025.7,045.4,0.480,739.6,01.18,0.508
2015-05-01 03:49:00,1749E-3,5C000000,-0724,0834,12309,025.7,045.4,0.480,739.6,01.18,0.508
2015-05-01 03:50:00,1569E-3,5C000000,-0724,0833,12137,025.7,045.4,0.480,739.6,01.18,0.508
2015-05-01 03:51:00,1694E-3,5C000000,-0724,0834,12116,025.7,045.4,0.480,739.6,01.18,0.508
2015-05-01 03:52:00,1818E-3,5C000000,-0724,0834,12243,025.8,045.4,0.480,739.5,01.18,0.508
2015-05-01 03:53:00,1850E-3,5C000000,-0724,0834,12196,026.0,045.4,0.480,739.5,01.18,0.508
2015-05-01 03:54:00,1757E-3,5C000000,-0724,0835,12090,026.1,045.4,0.479,739.5,01.18,0.508
2015-05-01 03:55:00,1704E-3,5C000000,-0724,0834,12180,026.3,045.4,0.479,739.5,01.18,0.508
2015-05-01 03:56:00,1902E-3,5C000000,-0724,0834,12142,026.4,045.4,0.479,739.5,01.18,0.508
2015-05-01 03:57:00,1642E-3,5C000000,-0724,0834,12104,026.5,045.4,0.479,739.5,01.18,0.508
2015-05-01 03:58:00,1744E-3,5C000000,-0724,0834,12105,026.6,045.4,0.479,739.5,01.18,0.508
2015-05-01 03:59:00,1780E-3,5C000000,-0724,0834,12251,026.6,045.4,0.479,739.5,01.18,0.508
2015-05-01 04:00:00,1770E-3,5C000000,-0724,0835,12122,026.7,045.4,0.479,739.5,01.18,0.508
2015-05-01 04:01:00,1824E-3,5C000000,-0724,0834,11972,026.8,045.4,0.478,739.5,01.18,0.508
2015-05-01 04:02:00,1776E-3,5C000000,-0724,0835,12219,026.8,045.4,0.478,739.5,01.18,0.508
2015-05-01 04:03:00,1765E-3,5C000000,-0724,0834,12081,026.8,045.4,0.478,739.5,01.18,0.508
2015-05-01 04:04:00,1786E-3,5C000000,-0724,0835,12266,026.9,045.4,0.478,739.5,01.18,0.508
2015-05-01 04:05:00,1801E-3,5C000000,-0724,0834,12272,026.9,045.4,0.478,739.6,01.18,0.508
2015-05-01 04:06:00,1788E-3,5C000000,-0724,0834,12153,026.9,045.4,0.479,739.6,01.18,0.508
2015-05-01 04:07:00,1720E-3,5C000000,-0724,0836,12081,026.9,045.4,0.478,739.6,01.18,0.508
2015-05-01 04:08:00,1855E-3,5C000000,-0724,0834,12168,027.0,045.4,0.478,739.6,01.18,0.508
2015-05-01 04:09:00,1776E-3,5C000000,-0724,0834,12174,027.0,045.4,0.478,739.6,01.18,0.508
2015-05-01 04:10:00,1764E-3,5C000000,-0724,0834,12166,027.1,045.4,0.478,739.6,01.18,0.508
2015-05-01 04:11:00,1767E-3,5C000000,-0724,0835,12060,027.1,045.4,0.478,739.6,01.18,0.508
2015-05-01 04:12:00,1844E-3,5C000000,-0724,0834,12215,027.1,045.4,0.478,739.6,01.18,0.508
2015-05-01 04:13:00,1761E-3,5C000000,-0724,0833,12197,027.1,045.4,0.478,739.6,01.18,0.508
2015-05-01 04:14:00,1782E-3,5C000000,-0724,0834,12277,027.1,045.4,0.478,739.6,01.18,0.508
2015-05-01 04:15:00,1786E-3,5C000000,-0724,0834,12050,027.1,045.4,0.478,739.7,01.18,0.508
2015-05-01 04:16:00,1793E-3,5C000000,-0724,0834,12199,027.1,045.4,0.478,739.7,01.18,0.508
2015-05-01 04:17:00,1947E-3,5C000000,-0724,0834,12127,027.1,045.4,0.478,739.7,01.18,0.508
2015-05-01 04:18:00,1862E-3,5C000000,-0724,0834,12088,027.0,045.4,0.478,739.7,01.18,0.508
2015-05-01 04:19:00,1739E-3,5C000000,-0724,0834,12249,027.0,045.4,0.478,739.7,01.18,0.508
2015-05-01 04:20:00,1734E-3,5C000000,-0724,0834,12111,026.9,045.4,0.478,739.7,01.18,0.508